Location: Dayton
(39.7590°N, 84.1920°W)
Time: 09:40:17
(UTC-04:00)

Daily predictions for brighter satellites

Satellite Brightness Start Highest point End
(mag) Time Altitude Azimuth Time Altitude Azimuth Time Altitude Azimuth
Cosmos 1758 4.4 19:46:23 10° SE 19:49:44 25° E 19:53:07 10° NE
Cosmos 1452 Rocket 4.1 19:45:50 10° N 19:50:44 37° ENE 19:55:34 10° SE
Cosmos 1484 Rocket 2.8 19:48:27 10° SSE 19:52:17 90° NE 19:56:12 10° NNW
ATLAS 5 CENTAUR R/B 1.9 19:50:07 10° SSW 19:54:45 57° ESE 19:59:45 10° NE
Abrixas 3.7 19:52:33 10° SSW 19:55:05 25° SE 19:57:38 10° E
Cosmos 2237 Rocket 3.7 19:49:50 10° SW 19:55:08 40° WNW 20:00:29 10° N
Timation 1 Rocket 4.4 19:49:18 10° NNW 19:55:15 65° ENE 20:01:09 10° SE
Cosmos 1437 3.2 19:53:10 10° NNW 19:56:26 67° W 19:59:40 10° S
DMSP B5D1-3 4.5 19:52:11 10° NNE 19:57:18 82° ESE 20:02:25 10° SSW
Cosmos 1072 Rocket 4.4 19:55:55 10° S 20:01:58 68° E 20:08:02 10° NNE
COSMO-SKYMED 1 3.2 19:58:44 10° N 20:03:02 63° WNW 20:07:19 10° SSW
ASTEX 1 4.5 20:08:10 10° NE 20:12:01 23° E 20:15:50 10° SE
Atlas Centaur 2 4.4 20:04:57 10° WSW 20:12:12 31° SSW 20:19:11 10° SE
Cosmos 1766 3.6 20:08:47 10° SSW 20:12:43 73° W 20:16:43 10° N
SL-16 R/B 2.8 20:10:18 10° SW 20:15:54 62° WNW 20:21:34 10° NNE
CENTAUR R/B 3.3 20:12:00 10° SSE 20:16:48 26° ESE 20:22:01 10° NE
Helios 1B rocket 2.7 20:14:33 10° NNE 20:18:32 46° E 20:22:29 10° S
Cosmos 1544 3.7 20:15:31 10° SSE 20:18:55 34° E 20:22:20 10° NNE
METEOR-M 4.1 20:15:15 10° SSE 20:20:32 66° ENE 20:25:51 10° N
Cosmos 1766 Rocket 3.4 20:17:41 10° N 20:22:04 71° E 20:26:22 10° SSE
NOSS 3-2 (C) 3.7 20:17:55 10° SW 20:23:58 76° NW 20:30:36 10° NNE
CZ-2D R/B 4.5 20:24:44 20° E 20:26:01 24° ENE 20:29:10 10° NNE
Cosmos 1378 4.2 20:23:21 10° NNW 20:26:58 48° W 20:30:33 10° SSW
OAO 3 Rocket 3.7 20:22:25 10° WSW 20:26:59 48° S 20:30:04 20° ESE
Spot 1 4.1 20:22:21 10° SSE 20:27:05 77° ENE 20:31:35 10° N
Spot 2 Rocket 3.4 20:22:34 10° SSE 20:27:34 68° ENE 20:32:34 10° N
Cosmos 1076 Rocket 3.6 20:23:22 10° N 20:27:43 80° W 20:32:04 10° S
Cosmos 1048 Rocket 4.3 20:25:19 10° S 20:30:16 42° ESE 20:35:13 10° NNE
Cosmos 1269 Rocket 4.1 20:25:43 10° S 20:30:47 50° ESE 20:35:54 10° NNE
Cosmos-2242 2.9 20:29:51 10° S 20:34:12 76° E 20:38:36 10° N
FENGYUN 3A 4.0 20:29:13 10° SE 20:34:16 44° ENE 20:39:22 10° N
Cosmos 2034 Rocket 4.0 20:30:33 10° S 20:36:49 87° E 20:43:11 10° N
Meteor 1-28 Rocket 4.2 20:33:54 10° N 20:37:30 48° WNW 20:41:05 10° SSW
Cosmos 1464 Rocket 4.4 20:31:48 10° SSW 20:38:00 68° W 20:44:11 10° N
ATLAS CENTAUR R/B 4.2 20:36:00 10° WNW 20:38:14 14° WSW 20:40:24 10° SW
H-2A R/B 3.5 20:39:09 29° ESE 20:40:05 33° ENE 20:43:36 10° N
Gbstr 26 Del rocket 3.8 20:36:56 10° SSW 20:40:58 37° SE 20:42:57 26° E
Cosmos 1805 3.4 20:37:34 10° SSW 20:41:29 76° W 20:45:26 10° N
Cosmos 1953 2.5 20:38:53 10° SSW 20:42:51 72° W 20:46:50 10° N
Cosmos 2151 4.5 20:40:22 10° NNE 20:42:41 20° NE 20:42:41 20° NE
ISS -3.2 20:40:30 10° SW 20:43:38 49° SE 20:44:06 45° ESE
ALOS 2.3 20:42:16 14° SSE 20:46:09 56° ENE 20:50:44 10° N
HJ-1C 3.9 20:44:54 10° S 20:48:13 60° W 20:51:34 10° NNW
BREEZE-M DEB (TANK) 4.3 20:33:53 10° W 20:48:57 54° N 20:52:03 23° ENE
Cosmos 1842 Rocket 3.5 20:49:43 10° S 20:53:57 58° E 20:58:14 10° NNE
Cosmos 1500 Rocket 3.6 20:50:50 10° N 20:55:13 56° E 20:57:01 32° SE
Cosmos 158 Rocket 4.1 20:50:53 10° S 20:55:26 40° ESE 20:59:59 10° NE
USA 215 3.2 20:51:26 10° NE 20:58:00 86° NW 21:04:32 10° SW
Cosmos 1943 Rocket 3.6 20:54:00 10° N 20:58:01 20° NE 20:58:07 20° NE
Cosmos 1943 3.3 20:52:51 10° S 20:58:14 48° ESE 21:03:36 10° NE
Cosmos 2369 Rocket 2.6 20:52:56 10° N 20:58:18 42° ENE 20:59:45 35° E
GPS 2-04 Rocket1 3.4 20:55:12 10° SW 20:58:12 32° S 20:58:12 32° S
Cosmos 1603 4.1 20:57:42 10° SSW 21:03:23 67° WNW 21:09:09 10° NNE
Cosmos 1470 2.5 21:01:05 10° S 21:04:58 77° E 21:08:51 10° N
Cosmos 1733 3.3 21:08:47 57° NE 21:08:47 57° NE 21:12:05 10° NNE
SL-8 R/B 3.7 21:05:51 10° WSW 21:10:38 79° NNW 21:12:17 41° NE
SeaSat 1 3.0 21:15:13 38° SSE 21:15:13 38° SSE 21:18:37 10° S
ERS-1 Rocket 4.0 21:15:21 30° NE 21:15:21 30° NE 21:18:47 10° N
CZ-4B DEB 3.2 21:14:31 60° WSW 21:14:36 60° W 21:17:50 10° NNW
Helios 1A 4.4 21:12:23 10° SSW 21:16:18 38° W 21:20:16 10° NNW
Resurs 01 Rocket 3.3 21:14:58 10° SSW 21:18:59 33° W 21:23:03 10° NNW
Cosmos 1674 3.0 21:16:50 10° NNW 21:20:41 65° W 21:21:24 52° SSW
Meteor 1-16 Rocket 4.3 21:36:59 56° NNE 21:36:59 56° NNE 21:41:15 10° NNE
ATLAS 5 CENTAUR R/B 4.2 21:36:04 10° W 21:39:51 22° NW 21:43:53 10° N
Meteor 1-11 4.2 21:34:36 10° N 21:40:07 68° ENE 21:40:07 68° ENE
Cosmos 839 Rocket 4.0 21:35:35 10° NNW 21:43:11 83° ENE 21:44:15 65° SE
Cosmos 2279 Rocket 4.1 21:46:27 57° NE 21:46:27 57° NE 21:51:32 10° NNE
GP-B 3.6 21:41:50 10° N 21:45:48 57° WNW 21:45:48 57° WNW
Cosmos 1655 Rocket 3.8 21:49:44 10° N 21:55:58 88° ENE 21:55:58 88° ENE
Cosmos 2026 Rocket 4.1 22:00:48 10° NNW 22:06:51 68° W 22:07:12 67° WSW
CENTAUR R/B 3.1 22:00:56 10° SW 22:06:54 55° NW 22:13:37 10° NNE
Envisat 4.4 22:19:33 33° NNW 22:19:33 33° NNW 22:22:23 10° NNW
Cosmos 2369 Rocket 4.0 22:37:25 10° NW 22:41:35 26° W 22:41:35 26° W
Cosmos 1943 Rocket 3.7 22:36:42 10° NNW 22:39:39 31° NW 22:39:39 31° NW
